Flag for U.S.A. Weather past 2 weeks in Warren, Michigan, U.S.A.

Now
21 °F

Snow. Ice fog.


Feels Like: 7 °F
Forecast: 4 / 17 °F
Wind: 15 mph from Northeast

Location: Detroit City Airport

Current Time: Feb 1, 2015 at 7:38:32 PM

Latest Report: Feb 1, 2015 at 6:53 PM


Visibility: 0 mi

Pressure: 29.83 "Hg

Humidity: 81%

Dew point: 16 °F

Location of WarrenLocation

Historic Weather in Warren — Graph

°F

Warren temperature yesterday

Maximum temperature yesterday: 35 °F (at 6:53 PM)
Minimum temperature yesterday: 15 °F (at 12:53 AM)
Average temperature yesterday: 27 °F

Past Weeks' High & Low Weather Summary

 TemperatureHumidityPressure
High44 °F (Jan 17, 11:53 PM)86% (Jan 18, 10:53 AM)30.93 "Hg (Jan 18, 10:53 AM)
Low11 °F (Jan 26, 6:53 AM)41% (Jan 30, 3:53 PM)28.07 "Hg (Jan 28, 7:53 PM)
Average27 °F68%30.03 "Hg
* Reported Jan 17 5:53 PM — Feb 1 5:53 PM, Warren, Weather by CustomWeather, © 2014

Note: Actual official high and low records may vary slightly from our data, if they occured in-between our weather recording intervals... More about our weather records

Advertising

Warren weather history for previous 24 hours

 ConditionsComfort  
Time TempWeatherWind HumidityBarometerVisibility
5:53 PM
Feb 1
21 °FSnow. Ice fog.15 mph81%29.86 "Hg1 mi
5:01 PM21 °FSnow. Ice fog.17 mph81%29.84 "Hg1 mi
3:53 PM21 °FHeavy snow. Ice fog.17 mph81%29.93 "Hg0 mi
2:53 PM22 °FHeavy snow. Ice fog.17 mph82%29.97 "Hg0 mi
1:53 PM23 °FSnow. Ice fog.15 mph81%30.00 "Hg1 mi
12:53 PM23 °FSnow. Ice fog.13 mph81%30.06 "Hg1 mi
11:53 AM23 °FSnow. Ice fog.16 mph78%30.11 "Hg1 mi
11:01 AM23 °FLight snow. More clouds than sun.14 mph81%30.13 "Hg1 mi
9:53 AM24 °FLight snow. Overcast.14 mph81%30.17 "Hg1 mi
8:53 AM24 °FLight snow. Ice fog.8 mph81%30.19 "Hg1 mi
7:53 AM24 °FLight snow. Overcast.6 mph81%30.21 "Hg1 mi
6:53 AM25 °FLight snow. Mostly cloudy.9 mph81%30.21 "Hg2 mi
5:53 AM27 °FLight snow. Overcast.8 mph81%30.20 "Hg3 mi
4:53 AM28 °FLight snow. Mostly cloudy.6 mph81%30.20 "Hg2 mi
3:53 AM29 °FLight snow. Overcast.9 mph82%30.20 "Hg1 mi
2:53 AM31 °FOvercast.10 mph73%30.21 "Hg7 mi
1:53 AM33 °FOvercast.9 mph72%30.19 "Hg7 mi
12:53 AM33 °FOvercast.5 mph70%30.19 "Hg9 mi
11:53 PM
Jan 31
34 °FOvercast.No wind67%30.19 "Hg9 mi
10:53 PM34 °FOvercast.3 mph67%30.19 "Hg10 mi
9:53 PM34 °FOvercast.6 mph67%30.20 "Hg10 mi
8:53 PM35 °FOvercast.8 mph61%30.21 "Hg10 mi
7:53 PM35 °FOvercast.7 mph61%30.21 "Hg10 mi
Weather by CustomWeather, © 2014

See weather overviewHow to use our weather pages